DW0987 Weather Reports


time (UTC)temp
F
wind
direction
speed
knots
gust
knots
rain 1hr
in
rain 24hr
in
rain mn
in
humidity
%
barometer
mb
20260906071510 72 343 0.0 0.0 0.00 0.00 0.00 82 1009.1
20260906070006 72 343 0.0 0.0 0.00 0.00 0.00 82 1009.4
20260906064505 73 343 0.0 0.0 0.00 0.00 0.00 82 1009.4
20260906063003 73 343 0.0 0.0 0.00 0.00 0.00 82 1009.7
20260906061502 73 343 0.0 0.0 0.00 0.00 0.00 81 1009.9
20260906060100 73 343 0.0 0.0 0.00 0.00 0.00 81 1009.9
20260906054606 73 343 0.0 0.0 0.00 0.00 0.00 81 1009.9
20260906053100 73 343 0.0 0.0 0.00 0.00 0.00 80 1010.2
20260906051610 73 343 0.0 0.0 0.00 0.00 0.00 80 1010.3
20260906050054 74 343 0.0 0.0 0.00 0.00 0.00 79 1010.4
20260906044603 74 343 0.0 0.0 0.00 0.00 0.00 79 1010.3
20260906043052 74 343 0.0 0.0 0.00 0.00 0.00 79 1010.2
20260906041552 74 343 0.0 0.0 0.00 0.00 0.00 79 1010.5
20260906040124 74 343 0.0 0.0 0.00 0.00 0.00 78 1010.8
20260906034555 74 343 0.0 0.0 0.00 0.00 0.00 77 1010.7
20260906033101 75 343 0.0 0.0 0.00 0.00 0.00 77 1010.8
20260906031545 75 343 0.0 0.0 0.00 0.00 0.00 77 1011.0
20260906030043 75 343 0.0 0.0 0.00 0.00 0.00 75 1010.8
20260906024544 76 343 0.0 0.0 0.00 0.00 0.00 75 1010.6
20260906023042 76 343 0.0 0.0 0.00 0.00 0.00 75 1010.3
20260906021542 76 343 0.0 0.0 0.00 0.00 0.00 74 1010.3
20260906020041 77 343 0.0 0.0 0.00 0.00 0.00 73 1010.4
20260906014540 77 343 0.0 0.0 0.00 0.00 0.00 72 1010.4
20260906013040 78 343 0.0 0.9 0.00 0.00 0.00 72 1010.3
20260906011540 79 343 0.0 0.9 0.00 0.00 0.00 71 1010.2
20260906010039 79 343 0.0 0.9 0.00 0.00 0.00 70 1010.2
20260906004538 80 297 0.0 1.7 0.00 0.00 0.00 68 1010.1
20260906003038 80 310 0.0 0.0 0.00 0.00 0.00 65 1010.0
20260906001539 81 310 0.0 0.0 0.00 0.00 0.00 64 1009.7
20260906000037 82 310 0.0 0.0 0.00 0.00 0.00 63 1009.7
20260905234538 82 310 0.0 0.0 0.00 0.00 0.00 64 1009.6
20260905233037 82 310 0.0 0.0 0.00 0.00 0.00 64 1009.1
20260905231537 82 310 0.0 0.0 0.00 0.00 0.00 64 1008.9
20260905230035 82 310 0.0 0.0 0.00 0.00 0.00 64 1008.9
20260905224606 83 310 0.0 0.9 0.00 0.00 0.00 63 1008.8
20260905223042 83 319 0.0 0.0 0.00 0.00 0.00 62 1008.8
20260905221536 82 353 0.0 1.7 0.00 0.00 0.00 61 1008.7
20260905220033 82 327 0.9 2.6 0.00 0.00 0.00 61 1008.6
20260905214538 83 16 0.9 4.3 0.00 0.00 0.00 62 1008.6
20260905213033 82 292 0.0 2.6 0.00 0.00 0.00 67 1009.0
20260905211542 84 290 0.0 0.0 0.00 0.00 0.00 67 1009.7
20260905210040 86 290 0.0 0.9 0.00 0.00 0.00 63 1009.8
20260905204531 88 64 0.0 0.9 0.00 0.00 0.00 59 1009.3
20260905203030 90 64 0.9 3.5 0.00 0.00 0.00 55 1009.7
20260905201530 92 25 0.9 4.3 0.00 0.00 0.00 53 1009.6
20260905200030 94 341 0.0 0.9 0.00 0.00 0.00 53 1008.7
20260905194529 94 341 0.0 0.9 0.00 0.00 0.00 52 1008.4
20260905193028 95 3 0.0 1.7 0.00 0.00 0.00 51 1008.4
20260905191527 97 311 0.0 4.3 0.00 0.00 0.00 47 1008.7
20260905190026 99 30 0.0 3.5 0.00 0.00 0.00 46 1008.7
20260905184529 98 232 0.0 0.9 0.00 0.00 0.00 47 1009.0
20260905183023 98 314 0.0 2.6 0.00 0.00 0.00 50 1009.1
20260905181519 99 249 0.0 2.6 0.00 0.00 0.00 47 1009.4
20260905180015 98 7 0.0 2.6 0.00 0.00 0.00 47 1009.7
20260905174511 98 22 0.0 3.5 0.00 0.00 0.00 50 1010.0
20260905173007 98 345 0.0 2.6 0.00 0.00 0.00 53 1010.3
20260905171504 97 305 0.0 4.3 0.00 0.00 0.00 52 1010.7
20260905170112 96 299 0.0 2.6 0.00 0.00 0.00 52 1010.9
20260905164606 96 16 0.0 2.6 0.00 0.00 0.00 52 1011.1
20260905163054 95 344 0.0 2.6 0.00 0.00 0.00 56 1011.3
20260905161605 94 49 0.0 2.6 0.00 0.00 0.00 58 1011.4
20260905160046 93 255 0.0 1.7 0.00 0.00 0.00 60 1011.6
20260905154545 92 155 0.0 2.6 0.00 0.00 0.00 62 1011.7
20260905153039 91 315 0.0 3.5 0.00 0.00 0.00 63 1011.8
20260905151536 89 344 0.0 2.6 0.00 0.00 0.00 64 1011.8
20260905150031 88 324 0.0 3.5 0.00 0.00 0.00 66 1011.8
20260905144527 86 268 0.0 2.6 0.00 0.00 0.00 67 1011.9
20260905143023 85 239 0.0 2.6 0.00 0.00 0.00 71 1012.0
20260905141519 83 243 0.0 2.6 0.00 0.00 0.00 74 1012.0
20260905140016 81 305 1.7 3.5 0.00 0.00 0.00 78 1012.0
20260905134517 79 237 0.0 2.6 0.00 0.00 0.00 81 1012.3
20260905133017 78 59 0.0 2.6 0.00 0.00 0.00 82 1012.3
20260905131508 77 351 0.0 1.7 0.00 0.00 0.00 83 1012.3
20260905130007 77 359 0.0 3.5 0.00 0.00 0.00 83 1012.5
20260905124506 76 235 0.0 0.0 0.00 0.00 0.00 84 1012.5
20260905123004 76 349 0.0 2.6 0.00 0.00 0.00 84 1012.5
20260905121503 76 248 0.0 2.6 0.00 0.00 0.00 83 1012.4
20260905120002 76 297 0.0 0.9 0.00 0.00 0.00 83 1012.4
20260905114603 76 290 0.0 0.0 0.00 0.00 0.00 82 1012.2
20260905113059 76 290 0.0 1.7 0.00 0.00 0.00 82 1012.0
20260905111557 76 343 0.0 0.0 0.00 0.00 0.00 81 1011.7
20260905110055 76 358 0.0 0.0 0.00 0.00 0.00 81 1011.5
20260905104554 76 358 0.0 2.6 0.00 0.00 0.00 80 1011.3
20260905103058 77 343 0.0 0.0 0.00 0.00 0.00 80 1011.2
20260905101600 77 343 0.0 0.0 0.00 0.00 0.00 79 1011.0
20260905100117 77 343 0.0 0.0 0.00 0.00 0.00 79 1010.9
20260905094551 77 343 0.0 0.0 0.00 0.00 0.00 79 1010.8
20260905093048 77 343 0.0 0.0 0.00 0.00 0.00 79 1010.8
20260905091556 77 343 0.0 1.7 0.00 0.00 0.00 79 1010.9
20260905090043 78 345 0.0 0.9 0.00 0.00 0.00 78 1011.0
20260905084550 78 345 0.0 0.9 0.00 0.00 0.00 78 1011.1
20260905083103 78 358 0.0 0.0 0.00 0.00 0.00 78 1011.3
20260905081541 78 353 0.0 0.9 0.00 0.00 0.00 78 1011.5
20260905080038 78 349 0.0 0.0 0.00 0.00 0.00 77 1011.5
20260905074537 78 329 0.0 0.9 0.00 0.00 0.00 76 1011.6
20260905073039 79 336 0.0 0.0 0.00 0.00 0.00 75 1011.6